Weather History for KMCW - March, 2014

Change the Weather History Date:

Tuesday, March 4, 2014

  Actual Average Record
Temperature  
Mean Temperature 10 °F 28 °F  
Max Temperature 18 °F 36 °F 65 °F (1983)
Min Temperature 1 °F 19 °F -8 °F (1978)
Degree Days  
Heating Degree Days 55 37  
Month to date heating degree days 259 152  
Since 1 July heating degree days 6805 6003  
Cooling Degree Days 0 0  
Month to date cooling degree days 0 0  
Year to date cooling degree days 0 0  
Moisture  
Dew Point 8 °F    
Average Humidity 81    
Maximum Humidity 95    
Minimum Humidity 67    
Precipitation  
Precipitation 0.09 in 0.05 in 1.00 in (1923)
Month to date precipitation 0.33 0.21  
Year to date precipitation 3.35 2.03  
Snow  
Snow 1.00 in 0.30 in 5.00 in (1962)
Month to date snowfall 4.0 1.0  
Since 1 July snowfall 50.1 33.5  
Snow Depth 21.00 in    
Sea Level Pressure  
Sea Level Pressure 30.20 in    
Wind  
Wind Speed 8 mph (ESE)    
Max Wind Speed 17 mph    
Max Gust Speed 20 mph    
Visibility 7 miles    
Events Snow    
T = Trace of Precipitation, MM = Missing Value Source: NWS Daily Summary

Daily Weather History Graph

Daily Weather History Graph

Search for Another Location

Airport or City:

Trip Planner

Search our weather history database for the weather conditions in past years. The results will help you decide how hot, cold, wet, or windy it might be!

Date:

Astronomy

Mar. 04, 2014 Rise Set
Actual Time 6:44 AM CST 6:06 PM CST
Civil Twilight 6:15 AM CST 6:34 PM CST
Nautical Twilight 5:43 AM CST 7:07 PM CST
Astronomical Twilight 5:10 AM CST 7:40 PM CST
Moon 8:24 AM CST (3/4) 10:21 PM CST (3/4)
Length of Visible Light 12h 18m
Length of Day
11h 21m
Waxing Crescent, 15% of the Moon is Illuminated
Mar 4
Waxing Crescent
Mar 8
First Quarter
Mar 16
Full
Mar 23
Last Quarter
Mar 30
New

Hourly Weather History & Observations

Time (CST) Temp. Windchill Dew Point Humidity Pressure Visibility Wind Dir Wind Speed Gust Speed Precip Events Conditions
12:53 AM 8.1 °F -7.0 °F 5.0 °F 87% 30.26 in 10.0 mi South 11.5 mph - N/A   Mostly Cloudy
1:53 AM 6.1 °F -6.8 °F 3.9 °F 91% 30.24 in 10.0 mi SSE 8.1 mph - N/A   Clear
2:53 AM 3.0 °F -8.0 °F 1.0 °F 91% 30.23 in 10.0 mi SSE 5.8 mph - N/A   Clear
3:53 AM 1.9 °F -9.2 °F -0.0 °F 91% 30.22 in 10.0 mi SSE 5.8 mph - N/A   Partly Cloudy
4:53 AM 6.1 °F -2.8 °F 3.0 °F 87% 30.21 in 10.0 mi SSE 4.6 mph - N/A   Overcast
5:53 AM 6.1 °F -6.8 °F 3.0 °F 87% 30.20 in 10.0 mi SSE 8.1 mph - N/A   Overcast
6:53 AM 3.9 °F -8.2 °F 1.0 °F 88% 30.21 in 10.0 mi SSE 6.9 mph - N/A   Scattered Clouds
7:53 AM 3.0 °F -6.4 °F -0.0 °F 87% 30.20 in 10.0 mi SSE 4.6 mph - N/A   Clear
8:53 AM 6.1 °F -2.8 °F 1.0 °F 80% 30.21 in 10.0 mi SSE 4.6 mph - N/A   Clear
9:53 AM 8.1 °F -2.0 °F 1.9 °F 76% 30.20 in 10.0 mi SE 5.8 mph - N/A   Clear
10:53 AM 10.9 °F 2.9 °F 3.9 °F 73% 30.21 in 10.0 mi SSE 4.6 mph - N/A   Clear
11:53 AM 12.9 °F 3.8 °F 6.1 °F 74% 30.20 in 10.0 mi SSE 5.8 mph - N/A   Clear
12:53 PM 14.0 °F 2.0 °F 7.0 °F 74% 30.18 in 10.0 mi SSE 9.2 mph - N/A   Clear
1:53 PM 16.0 °F 5.3 °F 8.1 °F 71% 30.16 in 10.0 mi SE 8.1 mph - N/A   Mostly Cloudy
2:53 PM 17.1 °F 6.6 °F 8.1 °F 68% 30.16 in 10.0 mi ESE 8.1 mph - N/A   Overcast
3:53 PM 18.0 °F 6.1 °F 8.1 °F 65% 30.19 in 10.0 mi East 10.4 mph - N/A   Overcast
4:53 PM 18.0 °F 9.8 °F 9.0 °F 68% 30.19 in 10.0 mi East 5.8 mph - N/A   Overcast
5:53 PM 17.1 °F 4.3 °F 8.1 °F 68% 30.19 in 10.0 mi East 11.5 mph - N/A   Overcast
6:53 PM 17.1 °F 3.6 °F 9.0 °F 71% 30.21 in 10.0 mi ENE 12.7 mph - N/A   Overcast
7:53 PM 17.1 °F 3.6 °F 10.9 °F 77% 30.21 in 3.0 mi ENE 12.7 mph - 0.00 in Snow Light Snow
7:59 PM 17.1 °F 3.6 °F 12.0 °F 81% 30.15 in 1.8 mi ENE 12.7 mph - 0.00 in Snow Light Snow
8:19 PM 16.0 °F 2.3 °F 12.9 °F 88% 30.15 in 1.0 mi ENE 12.7 mph - 0.00 in Snow Light Snow
8:38 PM 16.0 °F 2.3 °F 12.9 °F 88% 30.15 in 2.5 mi East 12.7 mph - 0.00 in Snow Light Snow
8:46 PM 16.0 °F 1.7 °F 12.9 °F 88% 30.15 in 4.0 mi East 13.8 mph - 0.00 in Snow Light Snow
8:53 PM 16.0 °F 2.3 °F 12.9 °F 88% 30.22 in 4.0 mi East 12.7 mph - 0.00 in Snow Light Snow
9:04 PM 16.0 °F 3.6 °F 14.0 °F 92% 30.16 in 1.8 mi ENE 10.4 mph - 0.00 in Snow Light Snow
9:15 PM 16.0 °F 3.6 °F 14.0 °F 92% 30.16 in 1.5 mi ENE 10.4 mph - 0.01 in Snow Light Snow
9:53 PM 16.0 °F 5.3 °F 14.0 °F 92% 30.25 in 1.5 mi East 8.1 mph - 0.02 in Snow Light Snow
10:10 PM 17.1 °F 5.8 °F 14.0 °F 88% 30.19 in 2.0 mi East 9.2 mph - 0.00 in Snow Light Snow
10:39 PM 17.1 °F 4.3 °F 14.0 °F 88% 30.20 in 3.0 mi ENE 11.5 mph - 0.00 in Snow Light Snow
10:53 PM 17.1 °F 4.3 °F 14.0 °F 88% 30.27 in 7.0 mi ENE 11.5 mph - 0.00 in   Overcast
11:53 PM 17.1 °F 3.6 °F 14.0 °F 88% 30.28 in 7.0 mi ENE 12.7 mph - 0.01 in   Overcast